CE3MXM-12 Weather Reports


time (UTC)temp
F
wind
direction
speed
knots
gust
knots
rain 1hr
in
rain 24hr
in
rain mn
in
humidity
%
barometer
mb
20260507135100 51 143 7.0 9.6 0.00 0.00 0.00 78 1024.7
20260507134600 50 103 9.6 12.2 0.00 0.00 0.00 78 1025.0
20260507134059 50 142 10.4 13.9 0.00 0.00 0.00 79 1024.9
20260507133600 50 144 7.0 12.2 0.00 0.00 0.00 79 1024.7
20260507133100 50 139 9.6 12.2 0.00 0.00 0.00 81 1024.6
20260507132559 49 86 13.0 16.5 0.00 0.00 0.00 78 1024.7
20260507132059 49 160 7.0 12.2 0.00 0.00 0.00 78 1024.7
20260507131600 50 105 7.8 9.6 0.00 0.00 0.00 78 1024.8
20260507131059 50 146 16.5 23.5 0.00 0.00 0.00 76 1024.7
20260507130559 49 146 9.6 13.9 0.00 0.00 0.00 77 1024.4
20260507130059 49 127 23.5 27.8 0.00 0.00 0.00 76 1024.5
20260507125559 48 150 7.8 9.6 0.00 0.00 0.00 80 1024.5
20260507125059 48 168 16.5 20.9 0.00 0.00 0.00 79 1024.4
20260507124559 47 156 16.5 20.9 0.00 0.00 0.00 79 1024.4
20260507124058 47 144 9.6 13.9 0.00 0.00 0.00 81 1024.5
20260507123558 47 114 13.0 16.5 0.00 0.00 0.00 81 1024.6
20260507123058 46 126 5.2 7.0 0.00 0.00 0.00 82 1024.4
20260507122558 46 166 18.2 23.5 0.00 0.00 0.00 82 1024.4
20260507122058 46 144 8.7 12.2 0.00 0.00 0.00 83 1024.3
20260507121558 46 146 7.8 9.6 0.00 0.00 0.00 83 1024.4
20260507121058 45 141 0.9 1.7 0.00 0.00 0.00 85 1024.3
20260507120557 45 215 9.6 12.2 0.00 0.00 0.00 87 1024.1
20260507120058 44 148 4.3 5.2 0.00 0.00 0.00 88 1023.9
20260507115557 44 130 5.2 7.0 0.00 0.00 0.00 88 1023.9
20260507115057 44 144 3.5 7.0 0.00 0.00 0.00 89 1023.7
20260507114557 43 143 1.7 5.2 0.00 0.00 0.00 90 1023.9
20260507114057 43 157 6.1 12.2 0.00 0.00 0.00 90 1023.9
20260507113557 43 159 8.7 12.2 0.00 0.00 0.00 89 1023.8
20260507113057 44 122 8.7 12.2 0.00 0.00 0.00 89 1023.7
20260507112557 43 158 11.3 16.5 0.00 0.00 0.00 90 1023.7
20260507112057 43 188 6.1 7.0 0.00 0.00 0.00 90 1023.8
20260507111557 43 158 5.2 7.0 0.00 0.00 0.00 91 1023.9
20260507111057 43 147 1.7 5.2 0.00 0.00 0.00 91 1023.7
20260507110556 43 171 6.1 9.6 0.00 0.00 0.00 91 1023.5
20260507110056 43 115 6.1 7.0 0.00 0.00 0.00 91 1023.4
20260507105556 43 173 9.6 13.9 0.00 0.00 0.00 92 1023.4
20260507105056 43 130 8.7 12.2 0.00 0.00 0.00 92 1023.2
20260507104556 43 160 4.3 7.0 0.00 0.00 0.00 93 1023.4
20260507104056 44 165 1.7 5.2 0.00 0.00 0.00 93 1023.3
20260507103556 44 152 5.2 7.0 0.00 0.00 0.00 93 1023.4
20260507103056 44 165 11.3 13.9 0.00 0.00 0.00 93 1023.3
20260507102555 44 150 7.8 12.2 0.00 0.00 0.00 93 1023.3
20260507102056 44 151 3.5 5.2 0.00 0.00 0.00 93 1023.4
20260507101556 44 93 5.2 9.6 0.00 0.00 0.00 93 1023.3
20260507101055 44 160 3.5 7.0 0.00 0.00 0.00 93 1023.3
20260507100555 44 148 0.9 1.7 0.00 0.00 0.00 93 1023.1
20260507100055 44 152 1.7 1.7 0.00 0.00 0.00 93 1023.3
20260507095555 44 126 5.2 9.6 0.00 0.00 0.00 92 1023.1
20260507095055 44 140 1.7 1.7 0.00 0.00 0.00 92 1023.2
20260507094555 44 142 6.1 7.0 0.00 0.00 0.00 92 1023.1
20260507094055 44 161 8.7 12.2 0.00 0.00 0.00 92 1022.8
20260507093554 44 153 5.2 9.6 0.00 0.00 0.00 92 1022.9
20260507093054 44 171 13.0 16.5 0.00 0.00 0.00 92 1022.9
20260507092554 45 189 5.2 7.0 0.00 0.00 0.00 92 1022.8
20260507092054 45 147 3.5 5.2 0.00 0.00 0.00 91 1022.9
20260507091554 45 200 5.2 7.0 0.00 0.00 0.00 91 1022.6
20260507091054 45 173 1.7 5.2 0.00 0.00 0.00 91 1022.5
20260507090554 45 163 3.5 7.0 0.00 0.00 0.00 90 1022.7
20260507090054 45 152 2.6 5.2 0.00 0.00 0.00 90 1022.5
20260507085554 46 222 13.0 16.5 0.00 0.00 0.00 90 1022.2
20260507085054 46 171 5.2 9.6 0.00 0.00 0.00 90 1022.5
20260507084553 46 212 5.2 7.0 0.00 0.00 0.00 90 1022.3
20260507084054 46 195 3.5 5.2 0.00 0.00 0.00 90 1022.2
20260507083553 46 210 3.5 7.0 0.00 0.00 0.00 90 1022.2
20260507083053 46 193 12.2 16.5 0.00 0.00 0.00 90 1022.1
20260507082553 45 180 5.2 9.6 0.00 0.00 0.00 91 1022.2
20260507082053 45 175 5.2 9.6 0.00 0.00 0.00 91 1022.1
20260507081553 45 205 7.0 9.6 0.00 0.00 0.00 91 1021.9
20260507081053 45 225 9.6 12.2 0.00 0.00 0.00 91 1022.3
20260507080553 45 159 3.5 5.2 0.00 0.00 0.00 91 1022.3
20260507080053 45 168 2.6 5.2 0.00 0.00 0.00 91 1022.2
20260507075553 45 157 5.2 7.0 0.00 0.00 0.00 91 1022.1
20260507075053 45 123 16.5 23.5 0.00 0.00 0.00 91 1022.1
20260507074553 45 200 3.5 7.0 0.00 0.00 0.00 91 1022.1
20260507074052 45 146 3.5 5.2 0.00 0.00 0.00 91 1022.1
20260507073552 45 160 4.3 7.0 0.00 0.00 0.00 91 1022.2
20260507073052 45 139 6.1 7.0 0.00 0.00 0.00 92 1022.1
20260507072552 45 178 7.8 9.6 0.00 0.00 0.00 92 1022.0
20260507072052 44 147 0.9 1.7 0.00 0.00 0.00 93 1022.1
20260507071552 44 201 1.7 5.2 0.00 0.00 0.00 93 1022.3
20260507071052 44 171 3.5 7.0 0.00 0.00 0.00 93 1022.4
20260507070552 44 153 1.7 1.7 0.00 0.00 0.00 93 1022.2
20260507070051 44 146 3.5 5.2 0.00 0.00 0.00 93 1022.2
20260507065051 44 151 4.3 7.0 0.00 0.00 0.00 93 1022.1
20260507064551 44 154 1.7 5.2 0.00 0.00 0.00 93 1021.9
20260507064051 44 146 2.6 5.2 0.00 0.00 0.00 92 1022.1
20260507063551 45 155 0.0 0.0 0.00 0.00 0.00 91 1022.1
20260507063051 46 124 5.2 7.0 0.00 0.00 0.00 90 1022.1
20260507062551 46 233 5.2 7.0 0.00 0.00 0.00 89 1022.1
20260507062051 46 190 11.3 16.5 0.00 0.00 0.00 89 1021.9
20260507061551 46 215 15.6 23.5 0.00 0.00 0.00 90 1022.0
20260507061051 46 271 1.7 5.2 0.00 0.00 0.00 90 1021.9
20260507060551 46 259 10.4 13.9 0.00 0.00 0.00 91 1021.9
20260507060050 46 198 6.1 12.2 0.00 0.00 0.00 92 1022.0
20260507055550 46 230 11.3 13.9 0.00 0.00 0.00 92 1022.0
20260507055050 46 272 6.1 12.2 0.00 0.00 0.00 92 1022.0
20260507054550 46 241 4.3 9.6 0.00 0.00 0.00 93 1021.8
20260507054050 46 282 7.0 12.2 0.00 0.00 0.00 93 1021.8
20260507053550 45 219 6.1 9.6 0.00 0.00 0.00 93 1021.8
20260507053050 46 141 7.8 12.2 0.00 0.00 0.00 93 1021.9
20260507052550 46 217 4.3 7.0 0.00 0.00 0.00 93 1021.9
20260507052050 46 193 5.2 9.6 0.00 0.00 0.00 93 1022.0
20260507051549 46 144 3.5 9.6 0.00 0.00 0.00 93 1022.0
20260507051049 46 181 3.5 5.2 0.00 0.00 0.00 92 1022.0
20260507050549 46 199 11.3 12.2 0.00 0.00 0.00 92 1021.8
20260507050049 46 155 13.0 20.9 0.00 0.00 0.00 91 1021.9
20260507045549 47 166 5.2 9.6 0.00 0.00 0.00 91 1021.7
20260507045049 47 226 14.8 20.9 0.00 0.00 0.00 92 1021.8
20260507044549 47 180 9.6 16.5 0.00 0.00 0.00 92 1021.8
20260507044049 47 81 9.6 16.5 0.00 0.00 0.00 92 1021.8
20260507043549 47 144 2.6 7.0 0.00 0.00 0.00 92 1021.7
20260507043049 47 144 20.0 25.2 0.00 0.00 0.00 91 1021.6
20260507042549 47 190 15.6 18.2 0.00 0.00 0.00 91 1021.7
20260507042048 47 289 9.6 13.9 0.00 0.00 0.00 91 1021.6
20260507041548 47 225 14.8 25.2 0.00 0.00 0.00 92 1021.7
20260507041048 47 39 16.5 23.5 0.00 0.00 0.00 92 1021.8
20260507040548 47 151 1.7 1.7 0.00 0.00 0.00 92 1021.8
20260507040048 47 228 14.8 23.5 0.00 0.00 0.00 92 1021.6
20260507035548 47 159 10.4 18.2 0.00 0.00 0.00 92 1021.6
20260507035048 47 220 11.3 18.2 0.00 0.00 0.00 92 1021.6
20260507034548 47 262 3.5 5.2 0.00 0.00 0.00 92 1021.5
20260507034047 46 135 15.6 34.8 0.00 0.00 0.00 92 1021.5
20260507033548 47 159 1.7 1.7 0.00 0.00 0.00 92 1021.4
20260507033047 47 144 1.7 1.7 0.00 0.00 0.00 92 1021.3
20260507032547 47 159 0.9 1.7 0.00 0.00 0.00 92 1021.4
20260507032047 47 167 5.2 9.6 0.00 0.00 0.00 92 1021.4
20260507031547 47 154 13.0 18.2 0.00 0.00 0.00 92 1021.4
20260507031047 47 283 7.8 12.2 0.00 0.00 0.00 92 1021.4
20260507030547 47 180 1.7 5.2 0.00 0.00 0.00 91 1021.5
20260507030047 47 163 3.5 7.0 0.00 0.00 0.00 92 1021.3
20260507025547 47 315 1.7 5.2 0.00 0.00 0.00 92 1021.4
20260507025046 48 126 7.8 12.2 0.00 0.00 0.00 93 1021.3
20260507024547 48 315 9.6 12.2 0.00 0.00 0.00 93 1021.3
20260507024046 48 255 9.6 12.2 0.00 0.00 0.00 93 1021.3
20260507023546 47 213 12.2 16.5 0.00 0.00 0.00 93 1021.4
20260507023046 47 177 0.0 1.7 0.00 0.00 0.00 93 1021.4
20260507022546 47 161 5.2 7.0 0.00 0.00 0.00 93 1021.1
20260507022046 47 183 6.1 9.6 0.00 0.00 0.00 93 1021.0
20260507021546 48 153 14.8 18.2 0.00 0.00 0.00 93 1021.0
20260507021046 48 153 3.5 7.0 0.00 0.00 0.00 93 1021.1
20260507020546 48 193 4.3 9.6 0.00 0.00 0.00 93 1020.9
20260507020046 48 196 8.7 16.5 0.00 0.00 0.00 92 1021.0
20260507015546 48 195 3.5 7.0 0.00 0.00 0.00 92 1020.8
20260507015046 48 225 2.6 5.2 0.00 0.00 0.00 92 1020.9
20260507014545 48 157 2.6 5.2 0.00 0.00 0.00 92 1020.8
20260507014045 48 206 18.2 25.2 0.00 0.00 0.00 92 1020.6
20260507013545 48 150 1.7 5.2 0.00 0.00 0.00 92 1020.5
20260507013045 48 225 9.6 13.9 0.00 0.00 0.00 91 1020.6
20260507012545 48 207 5.2 7.0 0.00 0.00 0.00 92 1020.7
20260507012045 48 332 3.5 5.2 0.00 0.00 0.00 92 1020.8
20260507011545 48 200 2.6 5.2 0.00 0.00 0.00 92 1020.7
20260507011045 48 328 4.3 7.0 0.00 0.00 0.00 92 1021.0
20260507010545 49 244 2.6 5.2 0.00 0.00 0.00 93 1020.8
20260507010045 48 296 2.6 5.2 0.00 0.00 0.00 93 1020.9
20260507005544 48 183 6.1 9.6 0.00 0.00 0.00 93 1020.8
20260507005044 48 146 0.0 1.7 0.00 0.00 0.00 93 1020.9
20260507004544 48 151 0.0 1.7 0.00 0.00 0.00 93 1021.0
20260507004044 48 126 1.7 5.2 0.00 0.00 0.00 93 1020.8
20260507003544 48 138 12.2 16.5 0.00 0.00 0.00 93 1020.8
20260507003044 49 120 12.2 18.2 0.00 0.00 0.00 92 1020.5
20260507002544 49 167 1.7 1.7 0.00 0.00 0.00 92 1020.7
20260507002044 49 337 1.7 5.2 0.00 0.00 0.00 92 1020.8
20260507001543 49 201 5.2 7.0 0.00 0.00 0.00 92 1020.5
20260507001044 49 143 13.0 18.2 0.00 0.00 0.00 92 1020.6
20260507000543 49 178 5.2 9.6 0.00 0.00 0.00 92 1020.4
20260507000043 49 120 3.5 5.2 0.00 0.00 0.00 92 1020.7
20260506235543 49 256 5.2 7.0 0.00 0.00 0.00 92 1020.5
20260506235043 49 250 3.5 12.2 0.00 0.00 0.00 92 1020.5
20260506234543 49 307 1.7 1.7 0.00 0.00 0.00 92 1020.5
20260506234043 49 124 1.7 1.7 0.00 0.00 0.00 92 1020.3
20260506233543 49 204 7.0 13.9 0.00 0.00 0.00 93 1020.4
20260506233043 49 172 5.2 9.6 0.00 0.00 0.00 93 1020.3
20260506232542 49 146 1.7 1.7 0.00 0.00 0.00 93 1020.2
20260506232042 49 182 3.5 5.2 0.00 0.00 0.00 93 1020.2
20260506231542 49 180 2.6 5.2 0.00 0.00 0.00 93 1020.0
20260506231042 49 320 0.0 0.0 0.00 0.00 0.00 93 1020.0
20260506230542 49 152 0.0 0.0 0.00 0.00 0.00 93 1019.9
20260506230042 49 317 0.0 0.0 0.00 0.00 0.00 93 1019.9
20260506225542 49 320 0.0 0.0 0.00 0.00 0.00 93 1019.7
20260506225042 49 156 0.0 0.0 0.00 0.00 0.00 93 1019.7
20260506224542 49 310 4.3 7.0 0.00 0.00 0.00 93 1019.5
20260506224042 49 151 0.0 0.0 0.00 0.00 0.00 92 1019.4
20260506223541 49 262 0.0 0.0 0.00 0.00 0.00 92 1019.6
20260506223042 50 145 0.0 0.0 0.00 0.00 0.00 92 1019.5
20260506222542 50 150 7.0 9.6 0.00 0.00 0.00 92 1019.2
20260506222041 50 343 3.5 5.2 0.00 0.00 0.00 92 1019.3
20260506221541 50 157 3.5 9.6 0.00 0.00 0.00 91 1019.3
20260506221041 50 153 7.0 9.6 0.00 0.00 0.00 91 1019.4
20260506220541 50 144 7.8 9.6 0.00 0.00 0.00 90 1019.2
20260506220041 50 143 5.2 7.0 0.00 0.00 0.00 90 1019.3
20260506215541 50 154 4.3 5.2 0.00 0.00 0.00 90 1019.1
20260506215041 50 169 14.8 18.2 0.00 0.00 0.00 90 1019.2
20260506214541 50 284 8.7 12.2 0.00 0.00 0.00 91 1019.1
20260506214040 50 195 8.7 12.2 0.00 0.00 0.00 91 1019.0
20260506213541 50 240 13.0 16.5 0.00 0.00 0.00 91 1019.2
20260506213040 51 138 7.0 12.2 0.00 0.00 0.00 91 1019.0
20260506212540 51 225 13.0 20.9 0.00 0.00 0.00 92 1019.1
20260506212040 51 279 15.6 18.2 0.00 0.00 0.00 92 1018.8
20260506211540 51 285 6.1 9.6 0.00 0.00 0.00 92 1019.0
20260506211040 51 117 8.7 12.2 0.00 0.00 0.00 92 1019.0
20260506210540 51 257 5.2 7.0 0.00 0.00 0.00 92 1018.9
20260506210040 51 290 20.0 23.5 0.00 0.00 0.00 92 1018.9
20260506205539 51 334 9.6 13.9 0.00 0.00 0.00 92 1019.1
20260506205040 51 243 15.6 20.9 0.00 0.00 0.00 93 1019.0
20260506204539 51 162 7.8 12.2 0.00 0.00 0.00 93 1018.7
20260506204039 51 180 6.1 9.6 0.00 0.00 0.00 92 1018.8
20260506203540 52 192 6.1 9.6 0.00 0.00 0.00 92 1018.9
20260506203039 52 246 12.2 18.2 0.00 0.00 0.00 92 1018.5
20260506202539 52 63 2.6 5.2 0.00 0.00 0.00 92 1018.5
20260506202039 52 320 3.5 5.2 0.00 0.00 0.00 92 1018.6
20260506201539 52 268 11.3 18.2 0.00 0.00 0.00 92 1018.6
20260506201039 52 181 23.5 27.8 0.00 0.00 0.00 92 1018.7
20260506200538 52 300 6.1 9.6 0.00 0.00 0.00 93 1018.5
20260506200039 52 272 3.5 5.2 0.00 0.00 0.00 92 1018.7
20260506195538 52 273 8.7 9.6 0.00 0.00 0.00 92 1018.6
20260506195038 52 186 4.3 7.0 0.00 0.00 0.00 92 1018.7
20260506194538 52 232 4.3 9.6 0.00 0.00 0.00 92 1018.5
20260506194038 52 275 9.6 16.5 0.00 0.00 0.00 92 1018.6
20260506193538 52 186 7.0 12.2 0.00 0.00 0.00 92 1018.4
20260506193038 52 4 13.0 25.2 0.00 0.00 0.00 92 1018.4
20260506192538 52 250 15.6 20.9 0.00 0.00 0.00 92 1018.3
20260506192038 52 295 4.3 7.0 0.00 0.00 0.00 92 1018.3
20260506191537 52 188 13.9 27.8 0.00 0.00 0.00 92 1018.4
20260506191037 52 264 14.8 16.5 0.00 0.00 0.00 92 1018.1
20260506190537 53 225 20.0 32.2 0.00 0.00 0.00 92 1018.1
20260506190037 53 264 16.5 20.9 0.00 0.00 0.00 92 1017.9
20260506185537 53 216 12.2 13.9 0.00 0.00 0.00 92 1017.9
20260506185037 53 242 20.0 25.2 0.00 0.00 0.00 92 1017.9
20260506184537 53 239 13.9 20.9 0.00 0.00 0.00 93 1017.9
20260506184037 53 291 12.2 16.5 0.00 0.00 0.00 93 1017.8
20260506183537 53 220 9.6 13.9 0.00 0.00 0.00 93 1017.7
20260506183037 53 267 12.2 20.9 0.00 0.00 0.00 93 1017.3
20260506182536 54 192 13.0 25.2 0.00 0.00 0.00 93 1017.5
20260506182037 54 225 12.2 13.9 0.00 0.00 0.00 93 1017.2
20260506181536 54 244 9.6 13.9 0.00 0.00 0.00 93 1017.1
20260506181036 54 206 13.9 25.2 0.00 0.00 0.00 93 1017.1
20260506180536 54 278 13.9 20.9 0.00 0.00 0.00 93 1017.2
20260506180036 54 221 14.8 20.9 0.00 0.00 0.00 93 1017.4
20260506175536 54 294 5.2 9.6 0.00 0.00 0.00 94 1017.3
20260506175036 54 193 13.0 16.5 0.00 0.00 0.00 94 1017.0
20260506174536 54 250 12.2 16.5 0.00 0.00 0.00 93 1017.4
20260506174036 54 150 7.8 16.5 0.00 0.00 0.00 93 1017.2
20260506173536 54 251 20.0 25.2 0.00 0.00 0.00 94 1017.1
20260506173035 54 283 13.9 25.2 0.00 0.00 0.00 93 1017.0
20260506172535 54 275 17.4 34.8 0.00 0.00 0.00 94 1017.1
20260506172035 55 215 11.3 16.5 0.00 0.00 0.00 95 1015.6
20260506171535 55 215 11.3 16.5 0.00 0.00 0.00 95 1015.6
20260506171035 55 215 11.3 16.5 0.00 0.00 0.00 95 1015.6
20260506170535 55 215 11.3 16.5 0.00 0.00 0.00 95 1015.6
20260506170035 55 215 11.3 16.5 0.00 0.00 0.00 95 1015.6
20260506165535 55 215 11.3 16.5 0.00 0.00 0.00 95 1015.6
20260506165035 55 215 11.3 16.5 0.00 0.00 0.00 95 1015.6
20260506164535 55 215 11.3 16.5 0.00 0.00 0.00 95 1015.6
20260506164034 55 215 11.3 16.5 0.00 0.00 0.00 95 1015.6
20260506163535 55 215 11.3 16.5 0.00 0.00 0.00 95 1015.6
20260506163034 55 215 11.3 16.5 0.00 0.00 0.00 95 1015.6
20260506162534 55 215 11.3 16.5 0.00 0.00 0.00 95 1015.6
20260506162034 55 215 11.3 16.5 0.00 0.00 0.00 95 1015.6
20260506161534 55 215 11.3 16.5 0.00 0.00 0.00 95 1015.6
20260506161034 55 215 11.3 16.5 0.00 0.00 0.00 95 1015.6
20260506160534 55 215 11.3 16.5 0.00 0.00 0.00 95 1015.6
20260506160034 55 215 11.3 16.5 0.00 0.00 0.00 95 1015.6
20260506155534 55 215 11.3 16.5 0.00 0.00 0.00 95 1015.6
20260506155033 55 291 21.7 39.1 0.00 0.00 0.00 95 1015.7
20260506154533 55 287 10.4 13.9 0.00 0.00 0.00 95 1015.7
20260506154033 55 216 10.4 18.2 0.00 0.00 0.00 95 1015.8
20260506153533 55 241 7.8 9.6 0.00 0.00 0.00 95 1015.6
20260506153033 55 335 9.6 12.2 0.00 0.00 0.00 95 1015.6
20260506152533 54 291 6.1 12.2 0.00 0.00 0.00 95 1015.5
20260506152033 54 336 14.8 25.2 0.00 0.00 0.00 95 1015.3
20260506151533 54 341 16.5 27.8 0.00 0.00 0.00 95 1015.3
20260506151033 54 298 20.0 25.2 0.00 0.00 0.00 95 1015.2
20260506150533 54 327 13.0 23.5 0.00 0.00 0.00 95 1015.3
20260506150033 54 176 6.1 9.6 0.00 0.00 0.00 95 1015.3
20260506145532 55 331 22.6 27.8 0.00 0.00 0.00 95 1015.1
20260506145032 55 275 8.7 12.2 0.00 0.00 0.00 95 1015.2
20260506144532 55 298 5.2 9.6 0.00 0.00 0.00 95 1015.1
20260506144033 55 10 5.2 7.0 0.00 0.00 0.00 95 1015.0
20260506143445 55 349 16.5 25.2 0.00 0.00 0.00 95 1015.1
20260506143032 55 326 13.0 23.5 0.00 0.00 0.00 95 1014.9
20260506142532 55 220 9.6 13.9 0.00 0.00 0.00 95 1014.9
20260506142032 55 337 11.3 13.9 0.00 0.00 0.00 95 1015.1
20260506141532 55 266 15.6 25.2 0.00 0.00 0.00 95 1014.8
20260506141031 55 296 7.8 13.9 0.00 0.00 0.00 95 1015.0
20260506140531 55 308 17.4 32.2 0.00 0.00 0.00 95 1015.0
20260506140032 54 110 8.7 9.6 0.00 0.00 0.00 95 1014.9
20260506135531 54 357 7.8 9.6 0.00 0.00 0.00 95 1014.9